Regional Weather Roundup
Issued by NWS

Home | Current Version | Previous Version | Text Only | Print | Product List | Glossary On
Versions: 1 2 3 4 5 6 7 8 9 10 11 12 13 14 15 16 17 18 19 20 21 22 23 24 25 26 27 28 29 30 31 32 33 34 35 36 37 38 39 40 41 42 43 44 45 46 47 48 49 50
000
ASUS46 KPQR 060710
RWROR

OREGON REGIONAL WEATHER ROUNDUP
NATIONAL WEATHER SERVICE PORTLAND OR
1200 AM PDT WED MAY 06 2015

NOTE: "FAIR" INDICATES FEW OR NO CLOUDS BELOW 12,000 FEET WITH
NO SIGNIFICANT WEATHER AND/OR OBSTRUCTIONS TO VISIBILITY.

ORZ001>013-060800-
NORTHWEST OREGON


CITY           SKY/WX    TMP DP  RH WIND       PRES   REMARKS
ASTORIA        CLOUDY    49  46  90 E5        30.11F
NEWPORT        MOCLDY    43  41  93 CALM      30.16F
PORTLAND       MOCLDY    51  41  68 N5        30.12R
VANCOUVER WA   MOCLDY    48  39  71 CALM      30.11S
SCAPPOOSE      CLOUDY    50  40  68 CALM      30.10S
HILLSBORO      MOCLDY    45  39  79 N3        30.11S
AURORA         CLEAR     44  39  82 CALM      30.12S
MCMINNVILLE    PTCLDY    43  39  86 CALM      30.13S
SALEM          CLEAR     48  41  76 W7        30.11S
CORVALLIS      MOCLDY    46  39  76 NW6       30.14S
EUGENE         PTCLDY    44  39  82 NE3       30.13R
$$

ORZ021-028-060800-
SOUTHWEST OREGON


CITY           SKY/WX    TMP DP  RH WIND       PRES   REMARKS
NORTH BEND     PTCLDY    50  48  93 CALM      30.16S
BROOKINGS      CLEAR     47  43  86 CALM      30.05S
ROSEBURG       CLOUDY    52  40  63 NW5       30.12R
SEXTON SUMMIT  MOCLDY    36  34  92 MISG      30.04S
MEDFORD        CLEAR     50  37  61 N6        30.05R
$$

ORZ014>016-041-060800-
COLUMBIA GORGE


CITY           SKY/WX    TMP DP  RH WIND       PRES   REMARKS
TROUTDALE      PTCLDY    50  40  68 CALM      30.10S
THE DALLES     CLEAR     48  39  71 NW5       30.06S
$$

ORZ029>031-041-044-049-050-061>064-502-503-505>511-060800-
EASTERN OREGON


CITY           SKY/WX    TMP DP  RH WIND       PRES   REMARKS
REDMOND        CLEAR     35  27  72 E3        30.03R
BEND           CLEAR     36  27  69 CALM      30.03S
PRINEVILLE     CLEAR     34  27  75 NW5       30.03R WCI  30
KLAMATH FALLS  CLEAR     36  27  69 CALM      29.99S
LAKEVIEW       PTCLDY    43  19  39 N15       29.98S
HERMISTON      CLEAR     48  34  58 SW9       30.02R
PENDLETON      CLOUDY    48  32  53 W13       30.01R
JOHN DAY       CLOUDY    42  32  65 NW5       30.00S
MEACHAM        PTCLDY    31  26  82 CALM      30.01S
LA GRANDE      CLEAR     43  23  45 NW9       29.99S
BAKER CITY     CLEAR     37  26  64 NW10      29.98S WCI  30
BURNS          CLEAR     37  22  54 W12       29.96R WCI  29
ROME             N/A     47  19  33 NE5       29.91R
ONTARIO        PTCLDY    52  21  29 NW20      29.91R
$$


USA.gov is the U.S. government's official web portal to all federal, state and local government web resources and services.